Location: Colle Pacifico
(43.5333°N, 13.3167°E)
Time: 18:07:48
(UTC+00:00)

SL-4 R/B - Pass Details

Date: 07 June 2020
Orbit: 428 x 666 km, 51.6° (Epoch: 11 July)

Event Time Altitude Azimuth Distance (km) Brightness Sun altitude
Rises 01:09:09 0° 301° (WNW) 3,007 5.8 -17.9°
Reaches altitude 10° 01:11:32 10° 301° (WNW) 2,086 5.0 -17.7°
Maximum altitude 01:16:23 86° 213° (SSW) 656 2.3 -17.2°
Drops below altitude 10° 01:21:01 10° 126° (SE) 1,998 4.8 -16.8°
Sets 01:23:15 0° 126° (SE) 2,869 5.7 -16.5°
